Location: Rodson Ranch
(38.7188°N, 119.3202°W)
Time: 12:37:00
(UTC+00:00)

Cosmos 1992 Rocket - Pass Details

Date: 29 October 2020
Orbit: 759 x 766 km, 74.0° (Epoch: 01 December)

Event Time Altitude Azimuth Distance (km) Brightness Sun altitude
Exits shadow 12:59:09 - 332° (NNW) 2,492 6.3 -16.6°
Reaches altitude 10° 12:59:39 10° 330° (NNW) 2,298 6.1 -16.5°
Maximum altitude 13:04:40 49° 257° (WSW) 973 4.1 -15.5°
Drops below altitude 10° 13:09:39 10° 183° (S) 2,288 6.5 -14.6°
Sets 13:12:04 0° 178° (S) 3,210 7.3 -14.1°
